Location: Chisholm
(54.9102°N, 114.1701°W)
Time: 06:03:23
(UTC+00:00)

N. Korean satellite - Visible Passes

Search period start: 30 November 2021 00:00
Search period end: 10 December 2021 00:00
Orbit: 447 x 495 km, 97.3° (Epoch: 29 November)

Date Brightness Start Highest point End Pass type
(mag) Time Alt. Az. Time Alt. Az. Time Alt. Az.
30 Nov 7.5 00:09:15 10° S 00:12:44 52° W 00:16:12 10° NNW visible
30 Nov 6.7 13:00:14 10° NNE 13:03:40 69° ESE 13:07:02 10° S visible
30 Nov 8.1 14:34:30 10° NNW 14:36:25 14° WNW 14:38:19 10° W visible
01 Dec 9.9 01:16:23 10° WSW 01:17:54 12° W 01:19:25 10° WNW visible
01 Dec 8.2 12:31:57 10° NNE 12:35:05 33° E 12:38:10 10° SSE visible
01 Dec 7.5 14:05:20 10° N 14:08:11 25° WNW 14:11:00 10° WSW visible
02 Dec 9.3 00:46:18 10° SSW 00:49:09 22° W 00:51:59 10° NW visible
02 Dec 9.3 12:04:01 10° NE 12:06:22 17° E 12:08:43 10° SE visible
02 Dec 6.6 13:36:32 10° N 13:39:50 46° WNW 13:43:05 10° SW visible
03 Dec 7.9 00:17:06 10° S 00:20:29 43° W 00:23:51 10° NNW visible
03 Dec 6.3 13:07:56 10° NNE 13:11:22 84° ESE 13:14:45 10° SSW visible
03 Dec 8.3 14:42:34 10° NNW 14:44:02 12° NW 14:45:30 10° W visible
04 Dec 10.3 01:25:23 10° W 01:25:41 10° W 01:25:58 10° W visible
04 Dec 7.8 12:39:33 10° NNE 12:42:47 39° E 12:45:59 10° S visible
04 Dec 7.7 14:13:09 10° NNW 14:15:47 21° WNW 14:18:25 10° WSW visible
05 Dec 9.5 00:54:18 10° SW 00:56:52 19° W 00:59:26 10° NW visible
05 Dec 9.0 12:11:27 10° NE 12:14:05 20° E 12:16:41 10° SE visible
05 Dec 6.8 13:44:14 10° N 13:47:26 38° WNW 13:50:36 10° SW visible
06 Dec 8.3 00:24:54 10° SSW 00:28:09 35° W 00:31:23 10° NNW visible
06 Dec 9.9 11:44:18 10° ENE 11:45:15 11° E 11:46:12 10° ESE visible
06 Dec 6.2 13:15:33 10° NNE 13:18:58 80° WNW 13:22:21 10° SSW visible
06 Dec 8.4 14:50:46 10° NW 14:51:34 11° NW 14:52:20 10° WNW visible
06 Dec 6.8 23:56:03 10° S 23:59:32 73° WSW 00:03:00 10° NNW visible
07 Dec 7.3 12:47:04 10° NNE 12:50:23 48° E 12:53:40 10° S visible
07 Dec 7.8 14:20:54 10° NNW 14:23:18 18° WNW 14:25:41 10° WSW visible
08 Dec 9.6 01:02:18 10° SW 01:04:31 16° W 01:06:43 10° NW visible
08 Dec 8.7 12:18:50 10° NE 12:21:41 24° E 12:24:31 10° SSE visible
08 Dec 7.1 13:51:52 10° N 13:54:56 32° WNW 13:58:00 10° SW visible
09 Dec 8.7 00:32:38 10° SSW 00:35:44 29° W 00:38:49 10° NNW visible
09 Dec 9.7 11:51:12 10° ENE 11:52:52 13° E 11:54:30 10° ESE visible
09 Dec 6.3 13:23:05 10° N 13:26:28 65° WNW 13:29:50 10° SSW visible
